Overview Statistics Trail Chart Weather Telemetry Raw packets
 

This is the latest recevied weather packets stored in our database for station/object WA6OOO. If no packets are shown the sender has not sent any weather packets the latest 10 day(s).

<< 99 100 101 102 103 104 105 >>
Time Temp. Humidity Pressure Rain* Wind** Luminosity Snow
1787930685 25.56° C 78% 1015.4 hPa 0 mm - 86 W/m² -
1787930380 25.56° C 77% 1015.3 hPa 0 mm - 93 W/m² -
1787930075 25.56° C 79% 1015.3 hPa 0 mm - 180 W/m² -
1787929774 25.56° C 77% 1015.6 hPa 0 mm - 73 W/m² -
1787929474 25° C 78% 1015.2 hPa 0 mm - 74 W/m² -
1787929171 24.44° C 81% 1015.1 hPa 0 mm - 76 W/m² -
1787928867 24.44° C 80% 1015.5 hPa 0 mm - 73 W/m² -
1787928567 24.44° C 81% 1015.3 hPa 0 mm - 76 W/m² -
1787928265 23.89° C 83% 1015.3 hPa 0 mm - 82 W/m² -
1787927964 23.89° C 82% 1015.3 hPa 0 mm - 72 W/m² -
1787927660 23.89° C 82% 1015.4 hPa 0 mm - 60 W/m² -
1787927359 23.89° C 82% 1015.3 hPa 0 mm - 51 W/m² -
1787927055 23.89° C 82% 1015.1 hPa 0 mm - 44 W/m² -
1787926750 23.33° C 82% 1014.9 hPa 0 mm - 42 W/m² -
1787926448 23.89° C 82% 1014.8 hPa 0 mm - 39 W/m² -
1787926148 23.89° C 81% 1015.1 hPa 0 mm - 31 W/m² -
1787925848 23.89° C 81% 1015.2 hPa 0 mm - 29 W/m² -
1787925547 23.33° C 81% 1014.7 hPa 0 mm - 30 W/m² -
1787925242 23.33° C 81% 1014.7 hPa 0 mm - 25 W/m² -
1787924941 23.33° C 81% 1014.8 hPa 0 mm - 16 W/m² -
1787924636 22.78° C 80% 1014.6 hPa 0 mm - 11 W/m² -
1787924331 22.78° C 81% 1014.6 hPa 0 mm - 7 W/m² -
1787924026 22.78° C 81% 1014.8 hPa 0 mm - 4 W/m² -
1787923720 22.78° C 82% 1014.6 hPa 0 mm - 2 W/m² -
1787923416 22.78° C 82% 1014.6 hPa 0 mm - 1 W/m² -

* Rain latest hour (hover to see other rain measurements)
** Current wind speed in m/s (hover to see current wind gust speed)